This is the latest recevied weather packets stored in our database for station/object N9EA. If no packets are shown the sender has not sent any weather packets the latest 10 day(s).
| Time | Temp. | Humidity | Pressure | Rain* | Wind** | Luminosity | Snow |
|---|---|---|---|---|---|---|---|
| 1778068758 | 6.11° C | 62% | 1013.6 hPa | 0 mm | - | 54 W/m² | - |
| 1778068456 | 6.11° C | 62% | 1013.6 hPa | 0 mm | - | 48 W/m² | - |
| 1778068154 | 6.11° C | 62% | 1013.5 hPa | 0 mm | - | 39 W/m² | - |
| 1778067851 | 6.11° C | 62% | 1013.6 hPa | 0 mm | - | 40 W/m² | - |
| 1778067550 | 6.11° C | 61% | 1013.4 hPa | 0 mm | - | 31 W/m² | - |
| 1778067247 | 5.56° C | 62% | 1013.1 hPa | 0 mm | - | 26 W/m² | - |
| 1778066944 | 5.56° C | 62% | 1013 hPa | 0 mm | - | 27 W/m² | - |
| 1778066641 | 5.56° C | 62% | 1012.8 hPa | 0 mm | - | 26 W/m² | - |
| 1778066338 | 5.56° C | 62% | 1012.7 hPa | 0 mm | - | 20 W/m² | - |
| 1778066036 | 5° C | 63% | 1012.6 hPa | 0 mm | - | 13 W/m² | - |
| 1778065733 | 5° C | 63% | 1012.5 hPa | 0 mm | - | 8 W/m² | - |
| 1778065430 | 5° C | 63% | 1012.5 hPa | 0 mm | - | 6 W/m² | - |
| 1778065128 | 4.44° C | 65% | 1012.6 hPa | 0 mm | - | 4 W/m² | - |
| 1778064824 | 3.89° C | 68% | 1012.3 hPa | 0 mm | - | 3 W/m² | - |
| 1778064521 | 3.89° C | 71% | 1012.4 hPa | 0 mm | - | 2 W/m² | - |
| 1778064219 | 3.89° C | 72% | 1012.5 hPa | 0 mm | - | 1 W/m² | - |
| 1778063917 | 3.89° C | 73% | 1012.5 hPa | 0 mm | - | 0 W/m² | - |
| 1778063614 | 3.89° C | 72% | 1012.6 hPa | 0 mm | - | 0 W/m² | - |
| 1778063311 | 4.44° C | 71% | 1012.6 hPa | 0 mm | - | 0 W/m² | - |
| 1778063009 | 4.44° C | 70% | 1012.6 hPa | 0 mm | - | 0 W/m² | - |
| 1778062706 | 4.44° C | 67% | 1012.5 hPa | 0 mm | - | 0 W/m² | - |
| 1778062401 | 4.44° C | 67% | 1012.5 hPa | 0 mm | - | 0 W/m² | - |
| 1778062100 | 4.44° C | 69% | 1012.5 hPa | 0 mm | - | 0 W/m² | - |
| 1778061798 | 4.44° C | 70% | 1012.5 hPa | 0 mm | - | 0 W/m² | - |
| 1778061496 | 5° C | 70% | 1012.4 hPa | 0 mm | - | 0 W/m² | - |
* Rain latest hour (hover to see other rain measurements)
** Current wind speed in m/s (hover to see current wind gust speed)